Time,TemperatureF,DewpointF,PressureIn,WindDirection,WindDirectionDegrees,WindSpeedMPH,WindSpeedGustMPH,Humidity,HourlyPrecipIn,Conditions,Clouds,dailyrainin,SoftwareType,DateUTC
2013-09-29 00:00:00,52.7,50.2,30.10,SSW,198,0.0,0.0,91,0.00,,,0.00,VWS V14.01,2013-09-29 04:00:00,
2013-09-29 00:10:00,52.6,49.8,30.10,SSW,198,0.0,0.0,90,0.00,,,0.00,VWS V14.01,2013-09-29 04:10:00,
2013-09-29 00:20:00,52.4,49.6,30.10,SSW,198,0.0,0.0,90,0.00,,,0.00,VWS V14.01,2013-09-29 04:20:00,
2013-09-29 00:30:00,52.1,49.3,30.10,SSW,198,0.0,0.0,90,0.00,,,0.00,VWS V14.01,2013-09-29 04:30:00,
2013-09-29 00:40:00,51.8,49.3,30.10,SSW,198,0.0,0.0,91,0.00,,,0.00,VWS V14.01,2013-09-29 04:40:00,
2013-09-29 00:50:00,51.7,49.2,30.10,SSW,198,0.0,0.0,91,0.00,,,0.00,VWS V14.01,2013-09-29 04:50:00,
2013-09-29 01:00:00,51.4,48.6,30.10,SSW,198,0.0,0.0,90,0.00,,,0.00,VWS V14.01,2013-09-29 05:00:00,
2013-09-29 01:10:00,51.3,48.5,30.10,SSW,198,0.0,0.0,90,0.00,,,0.00,VWS V14.01,2013-09-29 05:10:00,
2013-09-29 01:20:00,51.2,48.4,30.10,SSW,198,0.0,0.0,90,0.00,,,0.00,VWS V14.01,2013-09-29 05:20:00,
2013-09-29 01:30:00,51.2,48.4,30.09,SSW,198,0.0,0.0,90,0.00,,,0.00,VWS V14.01,2013-09-29 05:30:00,
2013-09-29 01:40:00,51.1,48.3,30.09,SSW,198,0.0,0.0,90,0.00,,,0.00,VWS V14.01,2013-09-29 05:40:00,
2013-09-29 01:50:00,51.0,48.2,30.09,SSW,198,0.0,0.0,90,0.00,,,0.00,VWS V14.01,2013-09-29 05:50:00,
2013-09-29 02:00:00,50.7,47.9,30.08,SSW,198,0.0,0.0,90,0.00,,,0.00,VWS V14.01,2013-09-29 06:00:00,
2013-09-29 02:10:00,50.6,47.8,30.08,SSW,198,0.0,0.0,90,0.00,,,0.00,VWS V14.01,2013-09-29 06:10:00,
2013-09-29 02:20:00,50.5,48.0,30.08,SSW,198,0.0,0.0,91,0.00,,,0.00,VWS V14.01,2013-09-29 06:20:00,
2013-09-29 02:30:00,50.4,47.9,30.08,SSW,198,0.0,0.0,91,0.00,,,0.00,VWS V14.01,2013-09-29 06:30:00,
2013-09-29 02:40:00,50.3,48.1,30.08,SSW,198,0.0,0.0,92,0.00,,,0.00,VWS V14.01,2013-09-29 06:40:00,
2013-09-29 02:50:00,50.3,48.1,30.07,SSW,198,0.0,0.0,92,0.00,,,0.00,VWS V14.01,2013-09-29 06:50:00,
2013-09-29 03:00:00,50.3,48.1,30.07,SSW,198,0.0,0.0,92,0.00,,,0.00,VWS V14.01,2013-09-29 07:00:00,
2013-09-29 03:10:00,50.3,48.1,30.07,SSW,198,0.0,0.0,92,0.00,,,0.00,VWS V14.01,2013-09-29 07:10:00,
2013-09-29 03:20:00,50.2,47.7,30.06,SSW,198,0.0,0.0,91,0.00,,,0.00,VWS V14.01,2013-09-29 07:20:00,
2013-09-29 03:30:00,50.0,47.5,30.06,SSW,198,0.0,0.0,91,0.00,,,0.00,VWS V14.01,2013-09-29 07:30:00,
2013-09-29 03:40:00,49.8,47.3,30.06,SSW,198,0.0,0.0,91,0.00,,,0.00,VWS V14.01,2013-09-29 07:40:00,
2013-09-29 03:50:00,49.6,47.1,30.06,SSW,198,0.0,0.0,91,0.00,,,0.00,VWS V14.01,2013-09-29 07:50:00,
2013-09-29 04:00:00,49.6,46.8,30.06,SSW,198,0.0,0.0,90,0.00,,,0.00,VWS V14.01,2013-09-29 08:00:00,
2013-09-29 04:10:00,49.5,46.7,30.06,SSW,198,0.0,0.0,90,0.00,,,0.00,VWS V14.01,2013-09-29 08:10:00,
2013-09-29 04:20:00,49.5,46.7,30.06,SSW,198,0.0,0.0,90,0.00,,,0.00,VWS V14.01,2013-09-29 08:20:00,
2013-09-29 04:30:00,49.5,46.7,30.06,SSW,198,0.0,0.0,90,0.00,,,0.00,VWS V14.01,2013-09-29 08:30:00,
2013-09-29 04:40:00,49.4,46.6,30.06,SSW,198,0.0,0.0,90,0.00,,,0.00,VWS V14.01,2013-09-29 08:40:00,
2013-09-29 04:50:00,49.5,46.7,30.06,SSW,198,0.0,0.0,90,0.00,,,0.00,VWS V14.01,2013-09-29 08:50:00,
2013-09-29 05:00:00,49.6,47.1,30.05,SSW,198,0.0,0.0,91,0.00,,,0.00,VWS V14.01,2013-09-29 09:00:00,
2013-09-29 05:10:00,49.7,47.5,30.05,SSW,198,0.0,0.0,92,0.00,,,0.00,VWS V14.01,2013-09-29 09:10:00,
2013-09-29 05:20:00,49.9,48.2,30.05,SSW,198,0.0,0.0,94,0.00,,,0.00,VWS V14.01,2013-09-29 09:20:00,
2013-09-29 05:30:00,50.1,48.7,30.05,SSW,198,0.0,0.0,95,0.00,,,0.00,VWS V14.01,2013-09-29 09:30:00,
2013-09-29 05:40:00,49.8,47.0,30.05,SSW,198,0.0,1.0,90,0.00,,,0.00,VWS V14.01,2013-09-29 09:40:00,
2013-09-29 05:50:00,49.1,46.0,30.05,SSW,198,0.0,0.0,89,0.00,,,0.00,VWS V14.01,2013-09-29 09:50:00,
2013-09-29 06:00:00,48.6,45.5,30.05,SSW,198,0.0,0.0,89,0.00,,,0.00,VWS V14.01,2013-09-29 10:00:00,
2013-09-29 06:10:00,48.1,45.3,30.05,SSW,198,0.0,0.0,90,0.00,,,0.00,VWS V14.01,2013-09-29 10:10:00,
2013-09-29 06:20:00,47.9,45.4,30.06,SSW,198,0.0,0.0,91,0.00,,,0.00,VWS V14.01,2013-09-29 10:20:00,
2013-09-29 06:30:00,47.8,45.6,30.06,SSW,198,0.0,0.0,92,0.00,,,0.00,VWS V14.01,2013-09-29 10:30:00,
2013-09-29 06:40:00,47.8,45.9,30.06,SSW,198,0.0,0.0,93,0.00,,,0.00,VWS V14.01,2013-09-29 10:40:00,
2013-09-29 06:50:00,47.7,45.5,30.06,SSW,198,0.0,0.0,92,0.00,,,0.00,VWS V14.01,2013-09-29 10:50:00,
2013-09-29 07:00:00,47.8,45.6,30.06,SSW,198,0.0,0.0,92,0.00,,,0.00,VWS V14.01,2013-09-29 11:00:00,
2013-09-29 07:10:00,47.9,46.0,30.06,SSW,198,0.0,0.0,93,0.00,,,0.00,VWS V14.01,2013-09-29 11:10:00,
2013-09-29 07:20:00,48.1,46.5,30.06,SSW,198,0.0,0.0,94,0.00,,,0.00,VWS V14.01,2013-09-29 11:20:00,
2013-09-29 07:30:00,48.4,47.0,30.06,SSW,198,0.0,0.0,95,0.00,,,0.00,VWS V14.01,2013-09-29 11:30:00,
2013-09-29 07:40:00,48.7,47.3,30.06,SSW,198,0.0,0.0,95,0.00,,,0.00,VWS V14.01,2013-09-29 11:40:00,
2013-09-29 07:50:00,48.9,47.0,30.06,SSW,198,0.0,0.0,93,0.00,,,0.00,VWS V14.01,2013-09-29 11:50:00,
2013-09-29 08:00:00,49.0,46.8,30.07,SSW,198,0.0,0.0,92,0.00,,,0.00,VWS V14.01,2013-09-29 12:00:00,
2013-09-29 08:10:00,49.1,46.6,30.07,SSW,198,0.0,0.0,91,0.00,,,0.00,VWS V14.01,2013-09-29 12:10:00,
2013-09-29 08:20:00,49.2,46.7,30.07,SSW,198,0.0,1.0,91,0.00,,,0.00,VWS V14.01,2013-09-29 12:20:00,
2013-09-29 08:30:00,49.4,47.2,30.06,SSW,198,0.0,0.0,92,0.00,,,0.00,VWS V14.01,2013-09-29 12:30:00,
2013-09-29 08:40:00,49.9,48.5,30.06,SSW,198,0.0,0.0,95,0.00,,,0.00,VWS V14.01,2013-09-29 12:40:00,
2013-09-29 08:50:00,50.5,49.4,30.07,SSW,198,0.0,0.0,96,0.00,,,0.00,VWS V14.01,2013-09-29 12:50:00,
2013-09-29 09:00:00,51.4,50.9,30.07,SSW,198,0.0,0.0,98,0.00,,,0.00,VWS V14.01,2013-09-29 13:00:00,
2013-09-29 09:10:00,53.1,52.5,30.07,South,169,1.0,2.0,98,0.00,,,0.00,VWS V14.01,2013-09-29 13:10:00,
2013-09-29 09:20:00,55.0,54.7,30.07,South,173,0.0,2.0,99,0.00,,,0.00,VWS V14.01,2013-09-29 13:20:00,
2013-09-29 09:30:00,56.1,55.8,30.07,SSE,166,1.0,2.0,99,0.00,,,0.00,VWS V14.01,2013-09-29 13:30:00,
2013-09-29 09:40:00,57.1,56.3,30.07,SSE,159,1.0,2.0,97,0.00,,,0.00,VWS V14.01,2013-09-29 13:40:00,
2013-09-29 09:50:00,58.0,55.4,30.07,SE,140,0.0,3.0,91,0.00,,,0.00,VWS V14.01,2013-09-29 13:50:00,
2013-09-29 10:00:00,58.8,55.6,30.07,NE,55,2.0,2.0,89,0.00,,,0.00,VWS V14.01,2013-09-29 14:00:00,
2013-09-29 10:10:00,59.6,55.4,30.07,West,262,1.0,2.0,86,0.00,,,0.00,VWS V14.01,2013-09-29 14:10:00,
2013-09-29 10:20:00,60.4,56.2,30.07,West,266,1.0,3.0,86,0.00,,,0.00,VWS V14.01,2013-09-29 14:20:00,
2013-09-29 10:30:00,60.8,54.9,30.06,SSE,150,1.0,3.0,81,0.00,,,0.00,VWS V14.01,2013-09-29 14:30:00,
2013-09-29 10:40:00,61.3,53.3,30.06,WSW,242,1.0,3.0,75,0.00,,,0.00,VWS V14.01,2013-09-29 14:40:00,
2013-09-29 10:50:00,61.6,54.0,30.06,SSW,195,1.0,2.0,76,0.00,,,0.00,VWS V14.01,2013-09-29 14:50:00,
2013-09-29 11:00:00,62.0,54.0,30.05,NE,46,0.0,3.0,75,0.00,,,0.00,VWS V14.01,2013-09-29 15:00:00,
2013-09-29 11:10:00,62.3,53.5,30.05,NNE,15,1.0,3.0,73,0.00,,,0.00,VWS V14.01,2013-09-29 15:10:00,
2013-09-29 11:20:00,62.7,53.5,30.05,SSE,150,1.0,2.0,72,0.00,,,0.00,VWS V14.01,2013-09-29 15:20:00,
2013-09-29 11:30:00,63.1,52.8,30.05,WNW,286,0.0,3.0,69,0.00,,,0.00,VWS V14.01,2013-09-29 15:30:00,
2013-09-29 11:40:00,63.5,53.5,30.05,SE,146,1.0,3.0,70,0.00,,,0.00,VWS V14.01,2013-09-29 15:40:00,
2013-09-29 11:50:00,63.9,52.3,30.04,SSW,195,1.0,3.0,66,0.00,,,0.00,VWS V14.01,2013-09-29 15:50:00,
2013-09-29 12:00:00,64.2,53.4,30.04,NNE,32,1.0,5.0,68,0.00,,,0.00,VWS V14.01,2013-09-29 16:00:00,
2013-09-29 12:10:00,64.4,52.8,30.04,WSW,249,1.0,3.0,66,0.00,,,0.00,VWS V14.01,2013-09-29 16:10:00,
2013-09-29 12:20:00,64.7,51.4,30.04,NE,48,1.0,4.0,62,0.00,,,0.00,VWS V14.01,2013-09-29 16:20:00,
2013-09-29 12:30:00,64.9,50.7,30.04,NW,306,1.0,5.0,60,0.00,,,0.00,VWS V14.01,2013-09-29 16:30:00,
2013-09-29 12:40:00,65.2,52.3,30.04,NNW,327,1.0,3.0,63,0.00,,,0.00,VWS V14.01,2013-09-29 16:40:00,
2013-09-29 12:50:00,65.4,50.7,30.04,NE,36,0.0,2.0,59,0.00,,,0.00,VWS V14.01,2013-09-29 16:50:00,
2013-09-29 13:00:00,65.5,51.7,30.03,ESE,115,1.0,2.0,61,0.00,,,0.00,VWS V14.01,2013-09-29 17:00:00,
2013-09-29 13:10:00,65.6,50.9,30.03,NW,311,2.0,3.0,59,0.00,,,0.00,VWS V14.01,2013-09-29 17:10:00,
2013-09-29 13:30:00,66.1,54.0,30.02,WSW,253,1.0,5.0,65,0.00,,,0.00,VWS V14.01,2013-09-29 17:30:00,
2013-09-29 13:40:00,66.3,53.3,30.02,SW,221,1.0,4.0,63,0.00,,,0.00,VWS V14.01,2013-09-29 17:40:00,
2013-09-29 13:50:00,66.4,53.9,30.01,West,270,0.0,4.0,64,0.00,,,0.00,VWS V14.01,2013-09-29 17:50:00,
2013-09-29 14:00:00,66.2,52.4,30.01,South,190,1.0,3.0,61,0.00,,,0.00,VWS V14.01,2013-09-29 18:00:00,
2013-09-29 14:10:00,66.3,52.5,30.01,WSW,248,1.0,3.0,61,0.00,,,0.00,VWS V14.01,2013-09-29 18:10:00,
2013-09-29 14:20:00,66.4,52.6,30.00,West,281,1.0,3.0,61,0.00,,,0.00,VWS V14.01,2013-09-29 18:20:00,
2013-09-29 14:30:00,66.4,51.7,30.00,NE,34,1.0,3.0,59,0.00,,,0.00,VWS V14.01,2013-09-29 18:30:00,
2013-09-29 14:40:00,66.3,50.6,30.00,West,277,1.0,3.0,57,0.00,,,0.00,VWS V14.01,2013-09-29 18:40:00,
2013-09-29 14:50:00,66.4,49.8,29.99,SSE,150,1.0,2.0,55,0.00,,,0.00,VWS V14.01,2013-09-29 18:50:00,
2013-09-29 15:00:00,66.4,49.3,29.99,SSW,203,1.0,2.0,54,0.00,,,0.00,VWS V14.01,2013-09-29 19:00:00,
2013-09-29 15:10:00,66.4,47.7,29.99,SSW,200,1.0,2.0,51,0.00,,,0.00,VWS V14.01,2013-09-29 19:10:00,
2013-09-29 15:20:00,66.3,46.6,29.99,NNE,13,0.0,2.0,49,0.00,,,0.00,VWS V14.01,2013-09-29 19:20:00,
2013-09-29 15:30:00,66.3,47.1,29.98,SSW,212,0.0,2.0,50,0.00,,,0.00,VWS V14.01,2013-09-29 19:30:00,
2013-09-29 15:40:00,66.3,47.7,29.98,SSW,212,0.0,2.0,51,0.00,,,0.00,VWS V14.01,2013-09-29 19:40:00,
2013-09-29 15:50:00,66.3,49.2,29.98,SSE,150,0.0,1.0,54,0.00,,,0.00,VWS V14.01,2013-09-29 19:50:00,
2013-09-29 16:00:00,66.3,49.2,29.98,SSW,200,1.0,2.0,54,0.00,,,0.00,VWS V14.01,2013-09-29 20:00:00,
2013-09-29 16:20:00,66.1,45.3,29.98,WSW,238,2.0,2.0,47,0.00,,,0.00,VWS V14.01,2013-09-29 20:20:00,
2013-09-29 16:30:00,65.9,47.3,29.97,SW,221,0.0,4.0,51,0.00,,,0.00,VWS V14.01,2013-09-29 20:30:00,
2013-09-29 16:40:00,65.8,49.2,29.97,SSE,153,0.0,2.0,55,0.00,,,0.00,VWS V14.01,2013-09-29 20:40:00,
2013-09-29 16:50:00,65.5,49.4,29.97,SSW,207,0.0,2.0,56,0.00,,,0.00,VWS V14.01,2013-09-29 20:50:00,
2013-09-29 17:00:00,65.2,50.5,29.96,SSW,201,1.0,2.0,59,0.00,,,0.00,VWS V14.01,2013-09-29 21:00:00,
2013-09-29 17:10:00,64.9,52.0,29.96,SSW,201,0.0,1.0,63,0.00,,,0.00,VWS V14.01,2013-09-29 21:10:00,
2013-09-29 17:20:00,64.7,53.9,29.96,SW,220,0.0,2.0,68,0.00,,,0.00,VWS V14.01,2013-09-29 21:20:00,
2013-09-29 17:30:00,64.1,55.3,29.96,SW,220,0.0,1.0,73,0.00,,,0.00,VWS V14.01,2013-09-29 21:30:00,
2013-09-29 17:40:00,63.5,55.4,29.96,WSW,250,1.0,2.0,75,0.00,,,0.00,VWS V14.01,2013-09-29 21:40:00,
2013-09-29 17:50:00,63.0,55.3,29.96,WSW,250,0.0,1.0,76,0.00,,,0.00,VWS V14.01,2013-09-29 21:50:00,
2013-09-29 18:00:00,62.6,55.7,29.96,WSW,250,0.0,1.0,78,0.00,,,0.00,VWS V14.01,2013-09-29 22:00:00,
2013-09-29 18:10:00,62.0,55.4,29.96,WSW,250,0.0,1.0,79,0.00,,,0.00,VWS V14.01,2013-09-29 22:10:00,
2013-09-29 18:20:00,61.3,55.1,29.97,WSW,250,0.0,1.0,80,0.00,,,0.00,VWS V14.01,2013-09-29 22:20:00,
2013-09-29 18:30:00,60.5,55.0,29.97,WSW,250,0.0,1.0,82,0.00,,,0.00,VWS V14.01,2013-09-29 22:30:00,
2013-09-29 18:40:00,59.8,54.6,29.97,WSW,250,0.0,0.0,83,0.00,,,0.00,VWS V14.01,2013-09-29 22:40:00,
2013-09-29 18:50:00,59.3,54.2,29.96,WSW,250,0.0,0.0,83,0.00,,,0.00,VWS V14.01,2013-09-29 22:50:00,
2013-09-29 19:00:00,58.5,53.7,29.96,WSW,250,0.0,0.0,84,0.00,,,0.00,VWS V14.01,2013-09-29 23:00:00,
2013-09-29 19:10:00,57.8,53.3,29.96,WSW,250,0.0,0.0,85,0.00,,,0.00,VWS V14.01,2013-09-29 23:10:00,
2013-09-29 19:20:00,57.1,53.0,29.96,WSW,250,0.0,0.0,86,0.00,,,0.00,VWS V14.01,2013-09-29 23:20:00,
2013-09-29 19:30:00,56.6,52.5,29.96,WSW,250,0.0,0.0,86,0.00,,,0.00,VWS V14.01,2013-09-29 23:30:00,
2013-09-29 19:40:00,56.4,52.6,29.96,WSW,250,0.0,0.0,87,0.00,,,0.00,VWS V14.01,2013-09-29 23:40:00,
2013-09-29 19:50:00,56.2,52.4,29.97,WSW,250,0.0,0.0,87,0.00,,,0.00,VWS V14.01,2013-09-29 23:50:00,
2013-09-29 20:00:00,55.7,51.9,29.96,WSW,250,0.0,1.0,87,0.00,,,0.00,VWS V14.01,2013-09-30 00:00:00,
2013-09-29 20:10:00,55.3,51.8,29.96,WSW,250,0.0,1.0,88,0.00,,,0.00,VWS V14.01,2013-09-30 00:10:00,
2013-09-29 20:20:00,54.9,51.7,29.97,WSW,250,1.0,1.0,89,0.00,,,0.00,VWS V14.01,2013-09-30 00:20:00,
2013-09-29 20:30:00,54.6,51.7,29.97,WSW,250,0.0,1.0,90,0.00,,,0.00,VWS V14.01,2013-09-30 00:30:00,
2013-09-29 20:40:00,54.3,51.4,29.97,WSW,250,0.0,1.0,90,0.00,,,0.00,VWS V14.01,2013-09-30 00:40:00,
2013-09-29 20:50:00,53.9,51.0,29.97,WSW,250,0.0,1.0,90,0.00,,,0.00,VWS V14.01,2013-09-30 00:50:00,
2013-09-29 21:00:00,53.6,50.4,29.97,WSW,250,0.0,0.0,89,0.00,,,0.00,VWS V14.01,2013-09-30 01:00:00,
2013-09-29 21:10:00,53.2,50.0,29.97,WSW,250,0.0,0.0,89,0.00,,,0.00,VWS V14.01,2013-09-30 01:10:00,
2013-09-29 21:20:00,52.7,49.2,29.96,WSW,250,0.0,0.0,88,0.00,,,0.00,VWS V14.01,2013-09-30 01:20:00,
2013-09-29 21:30:00,52.4,49.3,29.96,WSW,250,0.0,0.0,89,0.00,,,0.00,VWS V14.01,2013-09-30 01:30:00,
2013-09-29 21:40:00,52.2,49.1,29.96,WSW,250,0.0,1.0,89,0.00,,,0.00,VWS V14.01,2013-09-30 01:40:00,
2013-09-29 21:50:00,51.9,48.5,29.96,WSW,250,0.0,0.0,88,0.00,,,0.00,VWS V14.01,2013-09-30 01:50:00,
2013-09-29 22:00:00,51.5,48.4,29.96,WSW,250,0.0,0.0,89,0.00,,,0.00,VWS V14.01,2013-09-30 02:00:00,
2013-09-29 22:10:00,51.2,48.4,29.96,WSW,250,0.0,0.0,90,0.00,,,0.00,VWS V14.01,2013-09-30 02:10:00,
2013-09-29 22:20:00,50.9,48.1,29.96,WSW,250,0.0,0.0,90,0.00,,,0.00,VWS V14.01,2013-09-30 02:20:00,
2013-09-29 22:30:00,50.8,48.0,29.96,WSW,250,0.0,0.0,90,0.00,,,0.00,VWS V14.01,2013-09-30 02:30:00,
2013-09-29 22:40:00,50.5,47.7,29.96,WSW,250,0.0,0.0,90,0.00,,,0.00,VWS V14.01,2013-09-30 02:40:00,
2013-09-29 22:50:00,50.3,47.5,29.96,WSW,250,0.0,0.0,90,0.00,,,0.00,VWS V14.01,2013-09-30 02:50:00,
2013-09-29 23:00:00,50.1,47.6,29.96,WSW,250,0.0,0.0,91,0.00,,,0.00,VWS V14.01,2013-09-30 03:00:00,
2013-09-29 23:10:00,50.3,47.8,29.96,WSW,250,0.0,0.0,91,0.00,,,0.00,VWS V14.01,2013-09-30 03:10:00,
2013-09-29 23:20:00,50.4,47.9,29.95,WSW,250,0.0,0.0,91,0.00,,,0.00,VWS V14.01,2013-09-30 03:20:00,
2013-09-29 23:30:00,50.5,47.7,29.95,WSW,250,0.0,0.0,90,0.00,,,0.00,VWS V14.01,2013-09-30 03:30:00,
2013-09-29 23:40:00,50.6,48.1,29.95,WSW,250,0.0,0.0,91,0.00,,,0.00,VWS V14.01,2013-09-30 03:40:00,
2013-09-29 23:50:00,50.7,47.9,29.95,WSW,250,0.0,0.0,90,0.00,,,0.00,VWS V14.01,2013-09-30 03:50:00,